Location: Bruch
(44.2051°N, 0.4120°E)
Time: 18:01:17
(UTC+00:00)

USA-17 - Visible Passes

Search period start: 13 April 2021 00:00
Search period end: 23 April 2021 00:00
Orbit: 388 x 1775 km, 63.3° (Epoch: 12 April)

Date Brightness Start Highest point End Pass type
(mag) Time Alt. Az. Time Alt. Az. Time Alt. Az.
13 Apr 5.7 04:45:02 10° NNW 04:48:35 58° NE 04:53:22 10° SE visible
13 Apr 5.5 20:27:07 10° SSW 20:29:50 34° S 20:29:50 34° S visible
13 Apr8.322:24:57NNE22:24:57NNE22:17:01Wvisible
14 Apr 7.1 03:53:45 10° NNW 03:56:51 27° NE 04:00:43 10° ESE visible
14 Apr 5.8 19:36:14 10° S 19:39:25 21° ESE 19:42:06 10° ENE visible
14 Apr 6.5 21:26:09 10° WSW 21:29:20 27° NW 21:32:05 10° NNE visible
15 Apr 7.8 03:02:54 10° N 03:04:57 15° NE 03:07:16 10° ENE visible
15 Apr 4.8 20:33:42 10° SW 20:37:36 65° NW 20:40:46 10° NNE visible
16 Apr 5.7 03:59:53 10° NNW 04:03:26 55° NE 04:08:10 10° SE visible
16 Apr 4.7 19:41:58 10° SSW 19:45:56 48° SE 19:49:05 10° NE visible
16 Apr 7.6 21:34:10 10° WNW 21:36:03 14° NW 21:37:47 10° N visible
17 Apr 7.1 03:08:37 10° NNW 03:11:40 26° NE 03:15:28 10° ESE visible
17 Apr 6.6 20:40:55 10° WSW 20:44:09 28° NW 20:46:56 10° NNE visible
18 Apr 7.9 02:17:49 10° N 02:19:46 14° NE 02:21:57 10° ENE visible
18 Apr 4.9 04:06:17 10° NW 04:09:58 71° SW 04:15:00 10° SSE visible
18 Apr 4.8 19:48:30 10° SW 19:52:25 69° NW 19:55:36 10° NNE visible
19 Apr 5.7 03:14:44 10° NNW 03:18:15 53° NE 03:22:56 10° SE visible
19 Apr 7.6 20:48:52 10° WNW 20:50:51 14° NW 20:52:41 10° N visible
20 Apr 7.0 02:23:29 10° NNW 02:26:29 25° NE 02:30:12 10° ESE visible
20 Apr 5.7 04:12:58 10° WNW 04:16:30 34° WSW 04:21:10 10° S visible
20 Apr 6.6 19:55:40 10° WSW 19:58:57 29° NW 20:01:47 10° NNE visible
21 Apr 7.8 01:32:43 10° N 01:34:33 13° NE 01:36:36 10° ENE visible
21 Apr 4.8 03:21:05 10° NW 03:24:46 74° SW 03:29:48 10° SSE visible
22 Apr 5.7 02:29:33 10° NNW 02:33:04 50° NE 02:37:42 10° SE visible
22 Apr 6.6 04:20:14 10° WNW 04:23:02 18° WSW 04:26:25 10° SSW visible
22 Apr 7.5 20:03:32 10° W 20:05:38 15° NW 20:07:34 10° N visible
